Location: Ladd Observatory
(41.8387°N, 71.3996°W)
Time: 09:04:07
(UTC-05:00)

ISS - Visible Passes

Search period start: 27 November 2020 00:00
Search period end: 07 December 2020 00:00
Orbit: 418 x 420 km, 51.6° (Epoch: 27 November)

Date Brightness Start Highest point End Pass type
(mag) Time Alt. Az. Time Alt. Az. Time Alt. Az.
27 Nov -1.7 17:38:03 10° NW 17:40:23 17° N 17:41:28 15° NNE visible
28 Nov -1.8 16:50:05 10° WNW 16:52:39 20° NNW 16:55:15 10° NE visible
28 Nov -1.0 18:28:14 10° NW 18:28:47 12° NNW 18:28:47 12° NNW visible
29 Nov -1.6 17:40:32 10° NW 17:42:38 15° N 17:43:08 15° N visible
30 Nov -1.6 16:52:41 10° NW 16:54:51 16° N 16:57:00 10° NE visible
30 Nov -1.0 18:29:58 10° NW 18:30:27 12° NNW 18:30:27 12° NNW visible
01 Dec -1.8 17:42:28 10° NW 17:44:49 17° N 17:44:50 17° N visible
02 Dec -1.7 16:54:52 10° NW 16:57:02 16° N 16:59:12 10° NE visible
02 Dec -1.1 18:31:28 10° NW 18:32:15 15° NW 18:32:15 15° NW visible
03 Dec -2.4 17:44:00 10° NW 17:46:45 25° NNE 17:46:45 25° NNE visible
04 Dec -2.1 16:56:31 10° NW 16:59:08 20° NNE 17:01:22 12° ENE visible
04 Dec -1.6 18:32:59 10° NW 18:34:21 22° NW 18:34:21 22° NW visible
05 Dec -3.6 17:45:26 10° NW 17:48:43 49° NNE 17:49:05 46° NE visible
06 Dec -2.9 16:57:56 10° NW 17:01:02 34° NNE 17:04:02 11° E visible
06 Dec -1.8 18:34:44 10° WNW 18:37:02 30° WSW 18:37:02 30° WSW visible
